Weather History for Missoula, MT

Change the Weather History Date:

Wednesday, April 17, 2013

  Actual Average Record
Temperature  
Mean Temperature 32 °F 46 °F  
Max Temperature 48 °F 59 °F 86 °F (1936)
Min Temperature 16 °F 33 °F 16 °F (2013)
Degree Days  
Heating Degree Days 33 19  
Month to date heating degree days 390 352  
Since 1 July heating degree days 6206 6535  
Cooling Degree Days 0 0  
Month to date cooling degree days 0 0  
Year to date cooling degree days 0 0  
Moisture  
Dew Point 10 °F    
Average Humidity 44    
Maximum Humidity 68    
Minimum Humidity 19    
Precipitation  
Precipitation 0.00 in 0.04 in 0.35 in (1956)
Month to date precipitation 0.22 0.68  
Year to date precipitation 2.28 3.23  
Snow  
Snow 0.00 in - - ()
Month to date snowfall T  
Year to date snowfall 22.6  
Since 1 July snowfall 43.7  
Snow Depth 0.00 in    
Sea Level Pressure  
Sea Level Pressure 30.39 in    
Wind  
Wind Speed 4 mph (NNE)    
Max Wind Speed 20 mph    
Max Gust Speed 24 mph    
Visibility 10 miles    
Events      
T = Trace of Precipitation, MM = Missing Value Source: NWS Daily Summary

Daily Weather History Graph

Daily Weather History Graph

Search for Another Location

Airport:

Trip Planner

Search our weather history database for the weather conditions in past years. The results will help you decide how hot, cold, wet, or windy it might be!

Date:

Astronomy

Apr. 17, 2013 Rise Set
Actual Time 6:44 AM MDT 8:28 PM MDT
Civil Twilight 6:12 AM MDT 9:00 PM MDT
Nautical Twilight 5:33 AM MDT 9:39 PM MDT
Astronomical Twilight 4:50 AM MDT 10:22 PM MDT
Moon 11:55 AM MDT (4/17) 2:16 AM MDT (4/17)
Length of Visible Light 14h 48m
Length of Day
13h 43m
Waxing Crescent, 43% of the Moon is Illuminated
Apr 17
Waxing Crescent
Apr 18
First Quarter
Apr 25
Full
May 2
Last Quarter
May 9
New

Hourly Weather History & Observations

Time (MDT) Temp. Windchill Dew Point Humidity Pressure Visibility Wind Dir Wind Speed Gust Speed Precip Events Conditions
12:53 AM 28.0 °F 18.6 °F 7.0 °F 41% 30.40 in 10.0 mi ESE 10.4 mph - N/A   Clear
1:53 AM 25.0 °F 18.1 °F 8.1 °F 49% 30.40 in 10.0 mi East 5.8 mph - N/A   Partly Cloudy
2:53 AM 23.0 °F 17.0 °F 8.1 °F 53% 30.41 in 10.0 mi SSE 4.6 mph - N/A   Clear
3:53 AM 19.9 °F 13.4 °F 10.0 °F 65% 30.41 in 10.0 mi North 4.6 mph - N/A   Clear
4:53 AM 19.0 °F - 9.0 °F 65% 30.44 in 10.0 mi Calm Calm - N/A   Clear
5:53 AM 21.0 °F 14.6 °F 9.0 °F 60% 30.44 in 10.0 mi SSE 4.6 mph - N/A   Clear
6:53 AM 18.0 °F 12.7 °F 9.0 °F 68% 30.45 in 10.0 mi North 3.5 mph - N/A   Clear
7:53 AM 21.2 °F - 12.2 °F 68% 30.37 in 10.0 mi Calm Calm - N/A   Clear
8:53 AM 26.1 °F - 10.9 °F 53% 30.47 in 10.0 mi Calm Calm - N/A   Clear
9:53 AM 28.9 °F - 10.9 °F 47% 30.46 in 10.0 mi Calm Calm - N/A   Clear
10:53 AM 33.1 °F 30.0 °F 12.0 °F 42% 30.45 in 10.0 mi Variable 3.5 mph - N/A   Clear
11:53 AM 37.0 °F 33.3 °F 10.9 °F 34% 30.43 in 10.0 mi Variable 4.6 mph - N/A   Clear
12:53 PM 39.0 °F 34.0 °F 10.9 °F 32% 30.40 in 10.0 mi Variable 6.9 mph - N/A   Clear
1:53 PM 42.1 °F 38.4 °F 12.0 °F 29% 30.38 in 10.0 mi Variable 5.8 mph - N/A   Clear
2:53 PM 43.0 °F 41.3 °F 12.0 °F 28% 30.36 in 10.0 mi Variable 3.5 mph - N/A   Clear
3:53 PM 45.0 °F 42.6 °F 10.0 °F 24% 30.35 in 10.0 mi Variable 4.6 mph - N/A   Clear
4:53 PM 48.0 °F - 8.1 °F 20% 30.32 in 10.0 mi NNE 11.5 mph 21.9 mph N/A   Clear
5:53 PM 46.9 °F - 6.1 °F 19% 30.32 in 10.0 mi North 9.2 mph 18.4 mph N/A   Clear
6:53 PM 46.9 °F - 9.0 °F 21% 30.32 in 10.0 mi North 12.7 mph - N/A   Clear
7:53 PM 43.0 °F 38.8 °F 9.0 °F 25% 30.32 in 10.0 mi North 6.9 mph - N/A   Clear
8:53 PM 37.0 °F 34.5 °F 10.9 °F 34% 30.33 in 10.0 mi WNW 3.5 mph - N/A   Partly Cloudy
9:53 PM 33.1 °F - 12.0 °F 42% 30.35 in 10.0 mi Calm Calm - N/A   Partly Cloudy
10:53 PM 32.0 °F - 12.9 °F 45% 30.34 in 10.0 mi Calm Calm - N/A   Scattered Clouds
11:53 PM 28.9 °F - 14.0 °F 54% 30.35 in 10.0 mi Calm Calm - N/A   Clear